Vorticity
5 8 8 3 1 2 4 5 3 5 6 3 1 5 2 3 9 -4 -0 7 3 12 9 -1 -1 1 1 2 6 3 5 10 12 5 3 4 2 7 1 -1 7 8 7 6 7 5 5 5 5 5 5 6 5 5 5 5 4 5 5 6 6 6 6 5 5 4 5 5 5 5 4 5 6 6 6 5 6 9 10 9 11 11 10 8 9 9 8 8 7 8 8 7 8 8 7 6 5
8 10 12 8 1 -1 2 3 2 0 3 7 1 5 11 3 12 14 5 3 1 5 -3 -7 7 4 -1 6 10 12 16 18 17 14 11 10 10 9 5 6 10 7 6 7 6 4 5 5 5 5 4 5 4 5 5 4 5 5 4 5 5 5 5 4 5 5 5 5 5 6 5 6 6 6 6 5 6 9 9 8 10 11 10 8 8 10 8 7 8 8 7 7 8 7 6 5 5
9 10 13 12 5 -1 0 2 1 -1 -3 2 4 5 17 10 15 38 18 1 2 -1 4 10 13 9 9 12 16 21 20 15 12 12 17 18 16 11 9 10 8 6 6 4 4 5 5 6 5 4 4 4 5 5 5 5 5 4 5 5 4 5 5 4 5 5 6 6 6 6 6 6 6 6 6 5 6 8 8 8 9 10 10 8 8 9 8 7 7 7 6 8 8 7 5 5 5
10 11 12 13 10 4 1 4 2 2 -0 -4 4 -2 3 3 -12 2 -9 -12 12 14 14 14 10 10 9 8 10 11 10 12 12 12 15 14 13 12 10 8 6 5 4 4 5 5 5 5 4 4 5 5 5 6 5 5 4 4 5 4 4 5 6 5 6 6 6 7 7 6 6 6 5 6 6 4 6 7 7 8 8 9 9 7 7 8 8 7 6 7 6 7 9 8 6 4 4
12 12 12 13 11 10 6 6 5 2 5 1 5 -0 -2 7 -13 -17 -15 -13 3 -2 -9 -0 14 16 10 11 10 5 3 8 14 16 12 8 8 10 9 5 5 5 5 6 4 6 5 4 4 5 5 5 5 4 4 4 4 4 5 5 5 6 6 6 7 7 6 7 8 7 6 5 5 5 5 4 6 7 6 8 8 7 8 7 6 6 7 7 6 6 7 7 9 9 6 5 4
13 14 12 13 11 12 10 8 10 5 8 3 6 5 -5 7 5 1 4 3 2 -8 -6 7 15 13 13 15 10 8 7 6 11 16 11 7 8 6 5 4 5 6 6 5 5 6 4 4 5 5 4 4 4 4 4 4 4 5 6 5 6 7 6 6 7 8 7 7 8 7 6 5 5 5 4 4 6 6 6 7 8 6 7 8 6 5 6 6 7 6 6 7 8 8 6 6 5
12 14 13 13 12 11 10 9 12 9 10 9 17 19 2 1 6 10 11 8 8 9 12 13 10 8 11 12 8 9 8 10 12 15 10 6 7 4 4 6 6 5 6 5 4 4 3 5 5 5 4 3 4 4 4 4 5 5 5 5 6 6 6 7 7 8 8 7 7 6 6 5 5 5 4 5 6 5 5 6 8 7 5 7 7 5 6 6 6 6 5 6 8 8 7 6 5
11 12 13 12 13 12 11 10 9 11 12 9 13 11 1 -2 1 8 7 2 5 13 17 16 16 13 11 9 10 14 13 14 12 12 11 7 4 3 6 6 5 5 5 4 3 4 4 5 5 4 3 4 4 4 4 4 4 5 4 4 5 6 7 7 7 8 8 8 7 5 5 5 4 5 5 4 6 5 4 5 7 8 6 6 7 6 6 6 6 6 5 5 7 8 8 7 5
9 10 11 11 12 11 12 12 11 13 16 12 8 5 2 -2 -2 1 3 8 11 13 16 15 12 9 10 7 4 9 12 13 10 7 9 7 5 5 5 4 5 5 4 4 4 4 4 4 5 5 4 3 4 4 4 2 2 3 3 4 5 7 7 6 7 8 8 8 7 5 5 4 4 4 4 4 5 5 3 4 5 7 7 5 7 7 5 6 6 6 6 6 6 8 8 7 6
9 9 9 10 9 10 11 11 13 12 16 19 10 9 14 13 15 17 17 17 11 10 13 10 8 7 6 6 7 8 8 13 10 7 7 5 5 4 3 4 4 4 3 3 4 4 4 4 5 5 4 3 2 1 -0 0 1 3 5 6 6 7 7 6 6 8 7 7 6 5 4 4 4 4 4 4 4 5 4 3 4 6 8 6 6 6 6 7 6 5 7 6 6 8 9 7 6
8 9 9 9 8 9 9 9 13 13 13 15 3 -3 4 14 18 19 21 16 12 13 10 8 11 10 5 3 4 6 9 12 10 7 6 4 4 3 3 4 3 2 2 3 5 4 4 5 7 5 3 1 -1 -1 0 2 3 6 8 7 7 6 7 7 6 7 7 6 6 4 3 4 4 4 4 4 4 4 4 3 4 6 7 8 6 5 7 8 6 5 6 7 6 7 9 8 6
7 9 9 9 10 8 10 11 11 16 20 16 7 1 4 12 14 13 14 11 10 9 7 10 15 10 6 8 5 6 10 11 9 7 6 4 3 3 4 4 3 3 2 3 4 3 6 6 5 3 1 -1 -2 2 4 4 5 8 9 7 7 6 6 8 7 6 7 5 4 3 3 4 4 4 4 4 4 3 4 4 4 6 8 8 7 5 7 8 6 5 5 6 6 7 8 8 6
7 8 9 8 11 8 11 11 3 7 7 3 7 9 16 23 17 13 11 7 5 6 11 5 3 8 5 8 8 8 11 11 9 7 6 3 3 4 3 3 2 2 1 2 5 5 6 3 5 4 1 0 1 5 4 3 6 9 9 6 6 6 6 7 7 6 6 5 3 4 4 4 5 4 5 4 3 3 4 7 6 6 7 8 6 5 6 7 7 5 4 5 6 7 8 8 7
6 6 8 7 9 10 10 6 -0 1 -6 -3 9 4 11 22 14 11 8 7 8 8 18 12 -1 5 6 3 5 8 10 11 10 6 5 4 4 4 3 4 1 2 3 4 7 5 2 4 6 3 -0 -0 3 5 1 1 7 9 7 4 6 7 6 6 7 7 5 5 4 5 5 6 7 6 6 4 3 4 5 8 8 6 7 7 7 6 5 7 6 5 5 4 5 6 8 8 6
7 6 7 8 10 11 10 6 5 7 1 3 8 2 6 11 9 14 12 10 14 -0 2 18 7 1 8 6 5 8 7 7 9 5 4 4 3 3 3 3 2 3 5 7 5 2 4 7 4 -1 1 3 6 4 -2 2 9 11 6 3 6 6 6 6 7 8 6 6 5 5 6 8 8 6 5 4 4 5 6 9 8 6 7 6 7 7 5 6 6 5 5 4 5 6 8 8 7
8 7 7 10 11 11 13 12 13 10 5 1 -1 6 13 12 9 12 9 -1 11 8 -6 8 10 2 6 6 5 9 10 8 9 7 4 5 3 3 4 3 4 4 6 6 4 3 6 7 4 2 5 5 4 2 -1 4 8 9 9 6 5 6 7 7 6 7 8 7 7 6 6 7 6 5 5 4 4 5 6 8 8 6 6 6 7 7 5 5 5 5 5 4 4 6 8 8 7
9 6 9 10 10 16 15 13 20 11 -1 1 1 7 12 15 8 0 3 -4 4 17 5 6 12 9 4 3 3 1 6 9 8 7 4 5 4 4 4 4 4 3 6 5 4 6 4 7 7 4 7 4 0 4 3 3 6 7 12 10 4 5 5 7 9 7 7 8 7 6 6 7 3 4 6 4 4 6 6 6 8 7 5 5 6 8 7 4 4 5 4 4 3 5 8 9 8
10 9 11 7 11 18 10 8 19 11 -1 1 1 5 14 19 10 -2 6 7 2 3 0 3 8 10 8 9 9 0 4 9 7 6 4 5 4 4 4 4 3 4 5 3 7 8 4 8 8 5 4 1 2 8 4 1 6 5 9 12 7 7 5 6 10 7 6 9 7 5 7 4 1 6 5 3 6 5 3 6 7 5 3 5 6 8 8 5 3 4 5 5 3 3 7 11 9
9 11 9 9 17 9 2 4 2 1 2 0 -0 7 12 13 12 5 7 7 4 2 1 1 1 8 6 4 10 8 7 6 6 6 4 5 4 5 4 4 3 3 3 1 6 8 9 10 7 7 3 3 7 8 7 6 6 2 6 9 6 7 7 10 12 6 5 8 9 8 9 4 3 9 2 1 5 2 4 7 6 4 4 5 6 8 8 6 3 3 5 6 5 2 5 13 7
9 11 8 13 14 -5 1 8 -8 -6 0 -1 8 17 10 6 9 8 7 4 5 5 3 2 3 10 7 1 4 7 9 5 5 6 4 5 5 5 4 4 3 2 4 7 11 9 11 11 7 7 5 7 9 8 10 8 4 4 10 6 2 9 11 12 11 11 13 12 11 9 13 8 4 8 4 6 6 5 8 7 7 4 5 6 6 8 7 5 2 2 5 7 8 1 4 14 5
8 10 10 13 9 -6 -2 3 -4 -1 4 3 9 17 13 5 5 11 12 4 7 9 3 4 6 9 6 3 4 4 10 9 4 4 4 6 5 5 4 3 4 3 4 9 10 7 3 3 6 9 8 7 9 12 10 13 15 8 11 3 -3 8 9 8 8 14 16 10 7 7 11 8 5 10 9 9 6 9 8 3 10 8 5 7 6 8 6 4 2 1 4 6 8 3 4 12 5
5 9 10 6 4 -2 -6 -1 5 6 9 10 5 10 14 7 2 8 13 5 6 10 5 7 9 11 9 5 6 4 9 9 3 3 4 5 4 5 5 2 4 5 6 7 4 5 3 -0 7 10 7 6 9 11 5 14 20 6 9 8 3 10 13 17 15 14 11 6 11 11 10 5 5 9 9 9 8 14 10 -0 10 12 10 8 6 9 7 5 2 -0 4 5 7 6 4 7 3
4 7 10 6 6 6 2 4 9 9 12 11 4 8 10 6 4 2 7 5 3 5 1 1 4 10 13 9 7 5 11 12 5 4 3 5 5 4 4 3 4 4 4 7 5 4 4 3 8 5 1 6 5 0 -2 11 21 11 7 8 6 6 12 17 10 11 13 8 8 8 9 7 5 4 3 5 5 13 12 2 6 11 11 7 6 9 6 5 2 1 5 5 4 6 6 5 3
7 4 6 7 8 11 10 8 8 12 16 12 4 10 9 6 10 6 8 6 -1 5 4 -1 -0 5 7 6 7 9 11 13 8 5 5 4 4 5 4 4 5 5 3 4 5 3 4 7 9 3 2 8 2 -2 5 21 32 16 -5 2 9 4 8 7 -1 6 9 1 0 4 7 5 4 3 1 1 1 6 7 7 10 9 7 6 8 8 6 5 4 4 4 4 4 5 8 6 5
7 6 6 5 5 6 6 7 9 10 14 14 8 10 9 5 10 7 7 7 -4 -1 4 1 2 5 5 1 4 9 7 11 11 2 2 4 4 5 4 6 5 4 5 4 5 6 7 8 6 5 6 7 3 3 8 19 25 2 -14 8 16 6 8 5 0 5 4 3 8 12 10 6 7 6 4 4 5 7 6 9 10 7 8 7 7 9 9 6 4 6 5 4 4 5 7 7 7
5 6 8 7 8 8 8 9 8 9 11 14 11 10 9 5 6 4 4 7 -1 -2 0 2 4 4 6 5 5 9 4 9 13 3 2 5 4 5 5 6 6 4 6 7 6 6 6 5 4 3 2 3 6 7 6 11 18 7 1 16 15 6 8 8 9 9 9 12 12 13 11 8 11 6 5 7 7 9 10 12 10 9 12 6 5 9 8 7 6 5 6 4 3 4 4 7 7
5 3 6 6 7 8 8 10 8 10 11 11 10 11 12 5 3 10 11 6 2 2 -4 -2 5 5 6 5 3 5 0 4 13 8 3 5 4 4 5 4 6 6 5 6 5 5 5 4 3 0 1 4 5 3 3 8 18 17 10 10 11 9 7 5 9 10 11 11 8 10 9 6 10 5 5 10 10 10 10 11 12 11 11 8 11 14 4 3 10 6 5 5 3 3 3 9 7
5 3 5 5 7 8 7 9 10 9 10 12 11 11 13 5 3 12 14 6 3 5 2 -1 -2 2 7 5 4 5 2 4 10 8 2 4 5 4 6 5 6 6 3 4 4 4 5 4 2 1 3 4 1 0 5 11 16 14 8 8 10 9 9 6 5 6 7 10 11 10 8 7 8 5 4 8 8 9 8 8 11 12 12 10 13 14 -0 -5 10 11 6 5 4 3 5 11 6
6 6 6 6 7 8 9 10 12 12 11 12 11 14 14 5 3 8 11 9 2 4 8 9 2 -4 -1 -1 2 5 5 6 7 9 6 3 5 5 5 4 4 4 3 4 4 3 3 1 -1 -0 2 1 2 6 9 13 12 10 11 14 12 7 10 11 7 6 5 9 11 6 5 5 5 4 3 6 7 8 8 6 9 10 10 12 11 13 5 -4 4 12 10 5 6 4 4 12 5
5 6 5 8 8 7 9 9 12 12 12 14 11 16 17 7 5 5 8 8 1 3 8 11 11 1 -3 -2 -0 3 4 7 6 8 8 5 6 5 3 4 5 5 5 6 4 4 4 1 -1 1 3 4 6 10 12 12 10 10 11 13 14 9 10 12 11 8 4 7 7 3 3 4 8 7 2 6 7 6 6 5 7 8 8 13 15 15 14 6 2 7 9 6 10 7 4 12 7
3 5 6 6 6 6 6 6 10 11 12 14 8 9 13 13 18 12 8 11 3 6 12 10 9 2 3 7 2 3 5 4 3 7 11 8 8 6 3 4 6 7 6 5 6 6 6 3 3 4 5 5 5 6 8 8 8 8 8 11 13 9 8 12 14 9 5 7 6 5 5 4 6 5 3 9 7 3 4 6 8 8 8 11 14 15 14 12 7 3 1 4 11 8 7 10 4
4 5 6 4 7 8 9 9 8 12 12 9 12 17 12 10 23 17 4 11 8 6 14 14 10 2 4 10 6 5 6 2 1 6 13 11 9 8 5 5 6 7 6 7 9 8 6 4 3 5 3 1 1 4 7 10 11 9 9 12 11 4 2 7 11 9 8 7 4 5 5 6 8 7 7 10 10 9 7 8 8 6 6 5 8 11 10 11 10 3 0 6 10 9 13 10 1
6 4 4 6 9 7 14 16 5 12 10 4 21 25 14 9 17 18 1 4 12 10 15 15 11 5 -1 5 7 4 3 5 6 5 6 6 8 8 7 9 8 7 8 8 9 6 5 4 2 2 -1 -1 4 8 11 10 11 11 9 9 9 6 4 8 10 7 6 4 4 7 7 9 8 5 4 3 5 8 5 8 9 4 4 2 2 6 8 9 8 6 10 11 9 13 16 6 3
6 5 4 4 6 6 15 14 2 10 6 13 31 9 3 10 3 12 9 3 8 6 11 12 10 10 2 -1 -1 -1 -1 3 7 4 3 5 6 8 10 12 8 7 8 7 6 5 5 4 1 -0 -0 4 9 10 11 11 10 10 8 7 8 7 5 9 11 7 5 6 8 8 8 9 -0 -4 3 3 3 5 4 6 7 4 5 4 2 5 9 11 8 12 21 17 8 15 16 0 -3
7 4 6 7 6 8 14 10 4 8 0 20 33 -9 -8 8 -9 1 9 4 7 9 18 14 5 6 6 3 -2 1 5 2 6 13 16 13 5 6 11 11 7 6 7 6 5 6 4 2 1 1 3 8 11 10 10 10 10 8 7 6 7 8 5 6 9 6 5 11 17 15 13 7 -4 -2 6 2 2 5 6 7 7 7 8 6 4 6 8 7 7 12 18 17 12 15 18 6 -4
9 5 6 9 14 17 15 7 4 6 -2 20 35 -5 -9 9 -1 3 4 -2 -3 1 17 20 15 9 4 8 5 5 9 2 4 16 18 13 6 5 9 10 8 7 7 6 6 5 3 2 1 2 6 9 9 9 8 8 9 7 6 5 5 7 6 6 8 4 0 6 17 25 27 16 2 4 6 2 4 8 8 8 8 8 9 8 7 7 5 -1 4 12 12 12 15 17 16 10 3
12 17 10 3 14 19 11 8 8 8 4 20 37 7 -9 7 9 7 7 9 3 -1 7 14 21 15 1 5 5 3 7 2 6 16 14 11 11 8 5 8 8 8 7 5 6 5 1 1 2 4 7 9 8 7 7 7 7 5 5 7 6 6 7 7 9 5 -2 -1 4 13 24 25 19 12 6 5 8 11 13 11 7 6 7 9 8 7 5 2 5 12 12 12 15 16 16 14 6
-1 15 24 11 9 10 9 14 8 10 20 23 24 9 1 13 15 11 10 9 8 7 8 10 17 14 -1 1 8 9 10 11 16 16 7 4 7 5 3 5 4 6 7 5 6 5 2 1 2 6 7 8 8 7 7 6 5 6 6 7 7 7 8 8 8 3 -2 4 8 6 9 15 20 15 7 3 1 5 12 13 9 5 4 8 9 8 6 6 8 7 9 14 16 13 18 21 8
-14 -9 21 20 5 2 6 8 2 18 38 24 6 -2 -2 5 5 9 12 3 -2 -4 -4 6 19 22 10 1 3 8 9 15 16 5 0 4 6 7 6 5 4 6 7 6 7 4 3 3 3 6 7 6 8 7 6 5 5 7 7 8 9 8 8 9 8 4 2 7 10 8 7 9 11 11 9 4 1 3 9 12 12 8 7 6 6 9 7 7 8 8 9 14 15 10 15 26 13
0 -18 2 18 9 4 4 4 10 27 36 23 12 2 -0 9 4 -3 3 7 6 0 -4 -1 6 14 12 -0 -8 -5 1 6 3 -2 3 8 7 9 8 6 6 6 6 6 5 3 2 3 4 6 6 6 8 7 6 5 5 6 7 8 9 8 7 7 5 5 7 8 6 6 7 8 8 8 8 8 8 7 8 15 16 11 10 8 6 8 8 7 6 8 10 11 17 13 15 30 17
10 -10 -10 6 10 10 4 1 2 0 5 16 16 -2 -7 13 16 2 0 6 10 11 11 4 -1 -1 -2 -4 -6 -3 2 5 5 7 9 7 5 7 7 6 5 5 7 6 3 4 3 3 5 5 7 8 8 9 7 5 5 5 8 9 8 7 6 5 5 5 6 6 7 7 4 4 6 6 6 7 7 5 4 13 17 11 9 8 9 9 7 6 5 6 6 7 19 19 17 30 18
6 2 1 -4 2 18 8 -1 1 -9 -2 14 9 -2 -4 6 16 19 16 11 8 8 10 9 7 1 -5 0 5 3 6 7 7 8 7 7 7 7 6 5 5 6 7 7 4 4 4 3 5 6 8 10 9 9 7 5 5 6 8 9 7 7 5 5 6 6 6 7 8 7 5 5 6 6 5 4 5 6 4 5 11 12 10 9 9 10 8 6 4 6 6 4 16 22 16 25 21
2 6 15 -7 -8 20 11 1 4 -5 4 8 -7 -5 0 -7 -7 1 4 4 4 4 8 14 15 11 4 6 8 5 6 5 4 5 5 7 6 5 6 4 5 7 7 8 5 4 4 4 6 7 8 10 9 8 6 5 6 7 8 8 6 5 5 5 6 6 6 7 6 6 6 6 7 7 6 4 4 7 7 5 7 8 9 10 10 11 10 7 6 6 6 7 21 29 18 21 23
5 7 17 3 -7 4 4 7 4 -2 14 16 6 12 11 -3 -11 -8 -3 -1 2 6 11 15 14 10 7 6 6 5 6 5 4 7 6 6 5 4 5 5 5 7 7 7 5 4 5 4 6 8 9 10 9 7 7 7 7 8 8 7 6 5 5 6 7 7 6 5 5 5 7 8 7 7 8 8 7 6 7 7 7 6 5 5 6 10 10 9 10 5 3 13 29 32 19 21 25
7 10 15 16 2 -11 -2 14 14 19 29 18 13 20 15 10 6 3 6 6 8 9 4 7 11 9 8 7 7 5 5 6 5 7 7 5 5 4 4 5 5 6 7 6 5 4 4 4 5 8 10 11 9 7 7 7 8 9 8 6 6 6 7 7 6 5 5 5 5 6 9 9 8 10 10 8 8 6 8 13 12 6 6 4 -1 1 8 13 12 4 9 24 31 31 24 21 21
6 11 21 35 17 -13 -6 11 10 19 26 11 3 2 2 11 10 5 7 7 9 10 4 5 9 14 18 12 6 6 6 7 8 8 8 5 4 6 5 4 4 6 6 5 4 4 4 5 5 8 12 11 9 7 7 8 9 8 8 7 7 6 7 6 5 5 5 6 8 8 9 8 7 10 9 7 9 6 5 13 17 11 8 8 4 -1 0 9 14 7 10 16 15 26 35 28 20
8 -1 8 38 32 -8 -16 4 9 -1 -2 5 6 8 14 14 8 8 11 9 6 10 13 12 4 6 20 19 7 6 6 8 11 10 9 7 5 6 5 5 6 5 5 5 4 4 4 6 6 9 13 12 9 7 7 8 8 8 8 7 7 7 6 5 5 6 6 7 9 9 8 7 6 8 9 8 9 9 6 4 9 14 16 12 9 8 3 2 9 12 10 6 6 24 38 31 19
15 -4 -11 21 44 15 -20 -10 10 -4 -15 -2 4 11 17 10 8 9 8 9 8 7 9 11 10 3 7 17 14 8 7 8 12 12 10 8 6 6 7 7 7 6 5 6 4 3 4 6 8 10 12 11 8 7 7 8 8 8 8 7 7 6 5 6 6 6 7 7 7 8 7 8 7 6 8 7 6 10 13 9 3 6 18 22 16 12 10 4 4 10 11 7 12 27 30 23 17
16 4 -16 -3 36 39 -3 -22 -1 10 10 14 10 12 12 5 8 7 1 6 8 8 8 5 11 7 -3 8 15 11 10 9 11 10 9 7 5 6 8 6 5 4 4 5 4 4 4 6 9 10 10 9 7 7 8 8 8 7 7 6 6 7 6 6 7 6 6 7 7 8 8 8 8 7 6 7 7 6 9 14 11 3 6 18 23 19 13 9 6 6 11 10 15 28 27 16 15
14 12 -12 -16 20 43 21 -12 -17 2 12 11 9 11 8 -0 1 3 3 9 8 10 17 10 9 15 9 8 16 18 13 9 10 8 5 6 6 7 8 5 3 3 3 4 4 4 5 7 9 9 9 8 6 7 7 7 7 6 7 7 6 7 7 6 6 7 7 8 8 8 8 8 8 9 8 6 9 10 9 10 15 16 7 -0 14 25 16 10 10 5 9 14 15 26 28 15 11
11 14 -4 -18 3 24 30 11 -14 -8 6 6 8 9 9 5 6 12 10 7 4 0 8 12 7 11 13 9 14 22 18 10 7 6 5 6 7 7 6 3 3 4 3 4 4 4 6 8 10 10 9 8 6 7 7 7 6 6 6 7 7 7 6 6 6 7 7 7 8 7 8 9 9 10 11 9 9 13 16 12 10 19 23 8 6 22 20 10 11 8 6 12 14 22 28 15 9
16 21 -1 -15 -2 4 20 31 9 -2 8 13 11 3 4 4 -0 11 17 12 8 1 2 10 5 2 6 7 14 21 18 12 6 4 6 6 6 5 2 1 3 3 3 4 4 4 6 9 10 10 8 7 7 7 7 6 6 7 7 6 7 7 6 6 5 6 6 6 6 6 6 9 11 10 11 10 9 9 12 15 10 9 24 26 7 6 17 13 10 10 8 9 10 17 25 16 8
24 20 -11 -11 18 8 -3 20 25 10 3 8 12 -0 -2 6 -0 -3 5 11 16 13 9 10 8 9 10 9 16 20 17 10 5 4 6 6 5 2 0 1 2 3 4 5 4 4 7 10 11 11 9 7 7 6 5 6 7 7 7 6 7 7 6 5 5 5 6 5 5 6 7 9 10 10 11 10 9 10 9 11 13 6 13 27 13 0 11 14 9 10 9 9 8 11 20 15 6
33 28 -3 -16 7 14 -4 -3 18 21 4 -2 9 9 -0 3 7 0 -6 -1 7 11 14 13 11 12 11 8 11 15 13 7 3 5 5 3 2 0 -0 1 1 3 4 4 5 4 5 9 10 9 9 6 5 5 5 7 7 6 6 7 7 6 5 3 4 5 5 6 6 7 9 10 10 9 11 13 12 13 13 11 12 9 7 18 22 12 8 9 11 14 13 12 12 13 15 10 5
12 29 29 -7 -26 5 14 -9 -2 20 19 5 2 13 15 5 4 9 5 3 4 5 9 13 13 14 13 10 8 9 10 7 4 4 4 2 0 0 1 1 0 2 3 3 5 6 5 7 9 7 6 5 5 6 8 8 7 6 7 7 6 5 4 3 5 6 6 7 7 8 9 9 10 9 8 12 14 15 17 14 11 12 9 11 21 18 9 7 12 16 17 11 7 12 14 9 8
-1 11 38 29 -8 2 20 1 -4 12 23 25 7 -3 8 9 8 15 15 10 8 5 7 11 15 18 15 9 10 12 11 10 7 4 3 2 0 3 3 1 1 2 3 3 4 7 5 4 8 9 7 7 7 8 9 7 7 6 6 7 6 5 5 5 6 6 6 7 7 9 11 9 8 9 7 8 12 15 18 17 13 13 12 12 16 16 12 9 5 7 14 14 8 8 12 14 14
-1 -3 13 37 22 7 15 6 -3 -0 6 25 26 5 -1 -0 1 9 14 15 15 12 9 6 6 14 17 11 13 16 12 9 6 2 1 2 2 3 2 -0 2 3 3 3 4 7 7 5 8 11 9 8 8 9 8 7 6 6 6 7 7 6 5 6 6 6 6 7 9 9 10 10 7 6 6 4 7 13 16 18 16 14 14 16 17 17 13 7 3 3 7 13 13 8 7 12 16
-17 -1 -0 25 26 2 9 13 6 9 5 10 24 21 17 15 5 0 1 7 17 21 19 12 6 11 17 14 12 12 8 5 3 0 0 2 2 1 1 1 1 2 3 3 4 7 7 7 9 11 11 9 8 8 8 7 6 6 6 6 5 5 5 6 6 6 7 6 8 9 6 6 6 5 6 4 4 8 11 15 17 15 16 16 15 19 19 11 7 11 8 7 12 11 6 7 12
Height
5861 5862 5864 5865 5866 5867 5868 5868 5870 5871 5870 5870 5874 5876 5879 5883 5882 5884 5883 5878 5878 5871 5873 5880 5881 5880 5881 5879 5873 5875 5876 5876 5877 5874 5873 5874 5874 5873 5874 5876 5875 5875 5875 5876 5876 5876 5877 5877 5877 5876 5876 5875 5874 5873 5872 5871 5870 5869 5868 5867 5866 5865 5864 5863 5862 5861 5860 5859 5858 5856 5856 5855 5854 5853 5852 5851 5850 5849 5848 5847 5847 5846 5845 5844 5843 5842 5842 5842 5842 5841 5841 5840 5840 5839 5839 5839 5838
5859 5860 5861 5862 5863 5865 5865 5865 5867 5869 5868 5868 5872 5875 5879 5882 5878 5879 5880 5877 5872 5867 5872 5877 5877 5878 5879 5878 5871 5871 5873 5872 5873 5872 5872 5873 5874 5873 5874 5875 5875 5875 5875 5875 5876 5876 5876 5876 5876 5875 5875 5874 5873 5872 5871 5870 5869 5868 5867 5866 5865 5864 5863 5862 5861 5859 5859 5858 5857 5856 5855 5854 5853 5852 5851 5851 5850 5849 5848 5847 5846 5846 5844 5843 5843 5842 5842 5842 5842 5841 5841 5840 5840 5839 5839 5839 5838
5856 5857 5858 5859 5861 5862 5863 5863 5864 5867 5867 5867 5871 5875 5879 5882 5878 5875 5873 5869 5866 5868 5875 5875 5874 5875 5876 5875 5868 5868 5870 5870 5871 5871 5872 5873 5874 5873 5875 5875 5874 5874 5874 5875 5875 5875 5875 5875 5875 5874 5873 5872 5872 5871 5870 5869 5867 5867 5866 5865 5864 5863 5862 5861 5860 5859 5858 5857 5856 5855 5855 5853 5852 5851 5851 5850 5849 5849 5848 5847 5846 5845 5844 5843 5843 5842 5842 5842 5842 5841 5841 5841 5840 5840 5839 5839 5838
5853 5854 5855 5856 5857 5859 5860 5860 5862 5864 5866 5867 5869 5875 5878 5878 5875 5868 5863 5863 5866 5871 5875 5873 5872 5873 5874 5871 5866 5866 5869 5869 5870 5871 5871 5872 5872 5872 5874 5873 5873 5874 5873 5874 5874 5874 5874 5874 5873 5872 5872 5871 5871 5870 5869 5868 5867 5866 5865 5864 5863 5862 5861 5860 5859 5858 5858 5857 5856 5855 5854 5853 5852 5851 5850 5850 5849 5848 5848 5847 5846 5845 5844 5843 5843 5842 5842 5842 5842 5841 5841 5841 5841 5840 5840 5839 5839
5850 5851 5852 5853 5855 5855 5856 5857 5860 5861 5864 5867 5869 5874 5876 5871 5868 5864 5861 5864 5867 5869 5872 5872 5870 5869 5870 5868 5864 5865 5868 5870 5871 5870 5870 5870 5870 5871 5872 5872 5873 5873 5873 5873 5873 5873 5873 5872 5872 5871 5871 5870 5870 5869 5868 5867 5866 5865 5864 5863 5863 5862 5861 5860 5859 5858 5857 5857 5856 5855 5854 5853 5852 5851 5850 5850 5849 5848 5847 5847 5846 5845 5844 5843 5843 5842 5842 5842 5842 5842 5842 5841 5841 5840 5840 5839 5839
5848 5849 5850 5851 5852 5852 5853 5855 5858 5859 5862 5866 5867 5871 5873 5865 5860 5861 5862 5864 5866 5868 5870 5871 5869 5865 5865 5866 5863 5863 5867 5870 5870 5870 5869 5868 5868 5870 5871 5871 5872 5872 5872 5872 5871 5871 5871 5871 5870 5870 5869 5869 5869 5868 5867 5867 5866 5865 5864 5863 5862 5861 5860 5860 5859 5858 5857 5857 5856 5854 5853 5853 5852 5851 5850 5849 5849 5848 5847 5846 5846 5845 5844 5843 5843 5842 5842 5842 5842 5842 5842 5842 5841 5841 5840 5839 5839
5845 5846 5847 5848 5849 5850 5851 5853 5855 5857 5860 5863 5865 5869 5869 5859 5854 5857 5861 5864 5866 5867 5868 5869 5868 5864 5862 5863 5861 5862 5866 5868 5869 5869 5868 5868 5868 5869 5870 5871 5871 5871 5871 5870 5870 5870 5870 5869 5869 5868 5868 5868 5868 5867 5867 5866 5866 5865 5864 5863 5862 5861 5860 5859 5858 5858 5857 5856 5855 5854 5853 5852 5851 5850 5850 5849 5848 5847 5847 5846 5845 5845 5844 5844 5843 5842 5842 5842 5843 5843 5842 5842 5842 5841 5841 5840 5840
5843 5843 5845 5847 5847 5848 5849 5851 5853 5856 5859 5861 5862 5865 5861 5853 5852 5857 5862 5864 5864 5864 5866 5867 5866 5863 5860 5860 5860 5862 5865 5866 5867 5867 5867 5867 5867 5868 5869 5870 5870 5870 5869 5869 5868 5868 5868 5868 5868 5867 5867 5867 5867 5867 5867 5866 5865 5864 5863 5862 5861 5860 5859 5858 5858 5857 5856 5855 5854 5853 5852 5852 5851 5850 5850 5849 5848 5847 5846 5846 5845 5845 5844 5844 5843 5843 5842 5842 5842 5842 5842 5842 5842 5841 5841 5840 5840
5841 5841 5842 5845 5845 5845 5848 5850 5852 5854 5856 5857 5858 5859 5854 5850 5854 5858 5862 5863 5861 5861 5863 5864 5865 5862 5857 5857 5860 5862 5864 5865 5865 5865 5866 5867 5867 5867 5868 5869 5869 5868 5868 5867 5867 5867 5867 5866 5867 5867 5867 5867 5867 5867 5866 5865 5864 5863 5862 5861 5860 5859 5858 5857 5856 5856 5855 5854 5854 5853 5852 5851 5850 5850 5849 5849 5848 5847 5846 5846 5845 5845 5844 5844 5844 5843 5843 5842 5842 5842 5842 5842 5842 5841 5841 5840 5840
5838 5839 5840 5842 5843 5844 5846 5848 5850 5852 5853 5854 5855 5853 5851 5852 5855 5858 5861 5860 5859 5860 5860 5862 5864 5860 5855 5856 5860 5862 5863 5864 5864 5865 5866 5866 5866 5866 5867 5867 5867 5866 5866 5866 5866 5865 5865 5865 5866 5866 5867 5867 5867 5866 5865 5864 5863 5862 5860 5859 5858 5857 5856 5856 5855 5854 5854 5853 5853 5852 5851 5851 5850 5849 5848 5848 5848 5847 5846 5845 5845 5845 5844 5844 5844 5843 5843 5842 5842 5842 5842 5842 5841 5841 5841 5840 5840
5836 5837 5838 5840 5841 5843 5844 5847 5849 5850 5851 5852 5851 5848 5848 5853 5855 5856 5859 5857 5857 5859 5858 5861 5862 5857 5854 5857 5860 5862 5863 5863 5863 5864 5865 5866 5865 5865 5866 5865 5865 5865 5864 5864 5864 5864 5864 5865 5865 5866 5866 5866 5866 5865 5863 5862 5861 5860 5859 5858 5857 5856 5855 5855 5854 5853 5853 5852 5852 5851 5851 5850 5849 5849 5848 5848 5848 5847 5846 5845 5845 5844 5844 5843 5843 5843 5843 5842 5842 5841 5841 5841 5841 5840 5840 5840 5840
5834 5835 5836 5838 5839 5841 5843 5845 5847 5850 5851 5848 5846 5846 5848 5852 5854 5854 5856 5856 5855 5857 5857 5860 5860 5854 5854 5856 5858 5860 5862 5863 5863 5863 5864 5865 5865 5864 5864 5864 5864 5863 5862 5862 5862 5863 5864 5865 5865 5866 5865 5865 5864 5862 5862 5861 5860 5859 5858 5857 5856 5855 5854 5854 5853 5852 5852 5851 5851 5850 5850 5850 5849 5848 5848 5847 5847 5847 5846 5845 5845 5844 5844 5843 5843 5842 5842 5842 5841 5841 5841 5841 5840 5840 5840 5839 5839
5831 5833 5834 5835 5837 5839 5841 5843 5845 5848 5848 5844 5842 5845 5848 5851 5852 5852 5854 5854 5854 5856 5856 5858 5857 5853 5853 5855 5856 5858 5860 5861 5861 5862 5863 5864 5864 5863 5863 5863 5862 5861 5860 5859 5860 5862 5863 5864 5864 5864 5863 5862 5861 5861 5860 5859 5858 5857 5857 5856 5855 5854 5853 5852 5852 5851 5851 5850 5850 5850 5849 5849 5849 5848 5847 5846 5846 5846 5846 5845 5844 5844 5843 5843 5842 5842 5842 5842 5841 5841 5840 5840 5840 5839 5839 5839 5838
5829 5830 5831 5833 5835 5837 5839 5841 5842 5844 5846 5843 5839 5842 5848 5849 5849 5850 5852 5852 5854 5855 5855 5855 5854 5851 5851 5852 5853 5856 5859 5860 5860 5861 5862 5862 5862 5862 5862 5861 5861 5859 5857 5857 5859 5861 5863 5862 5862 5862 5861 5860 5860 5859 5858 5857 5857 5856 5855 5855 5854 5853 5852 5851 5851 5850 5850 5850 5850 5849 5849 5849 5849 5848 5847 5845 5845 5845 5845 5844 5844 5843 5843 5842 5842 5842 5842 5841 5841 5840 5840 5839 5839 5839 5838 5838 5838
5826 5828 5829 5831 5833 5835 5836 5839 5840 5842 5845 5840 5835 5841 5848 5846 5848 5850 5850 5852 5852 5852 5852 5853 5852 5849 5848 5850 5852 5856 5857 5858 5860 5860 5861 5861 5861 5861 5861 5860 5858 5855 5854 5856 5859 5861 5861 5859 5859 5859 5858 5858 5858 5857 5856 5855 5855 5854 5854 5853 5852 5851 5850 5850 5849 5849 5849 5849 5849 5849 5849 5848 5848 5847 5846 5845 5843 5843 5844 5844 5843 5843 5842 5842 5842 5841 5841 5841 5840 5840 5839 5839 5839 5838 5838 5838 5837
5824 5825 5827 5829 5831 5833 5835 5837 5839 5841 5841 5836 5833 5841 5845 5844 5848 5848 5848 5849 5848 5850 5851 5850 5849 5848 5847 5849 5852 5854 5855 5857 5858 5858 5859 5860 5860 5860 5859 5858 5855 5853 5853 5856 5859 5859 5857 5856 5856 5856 5856 5856 5856 5855 5854 5853 5853 5852 5852 5852 5851 5850 5849 5849 5849 5849 5849 5850 5849 5848 5848 5847 5847 5846 5845 5844 5842 5842 5842 5843 5843 5842 5842 5842 5841 5841 5841 5840 5840 5839 5839 5839 5838 5838 5838 5837 5837
5821 5823 5825 5827 5829 5832 5834 5836 5838 5838 5836 5831 5832 5839 5842 5842 5846 5844 5845 5846 5846 5849 5850 5846 5846 5846 5846 5849 5851 5852 5854 5855 5856 5857 5857 5858 5858 5858 5858 5856 5853 5851 5852 5854 5856 5855 5853 5852 5852 5853 5854 5854 5854 5853 5852 5851 5850 5850 5851 5850 5849 5848 5848 5848 5849 5850 5850 5849 5848 5847 5847 5846 5846 5845 5845 5843 5842 5841 5841 5842 5842 5842 5842 5841 5841 5841 5840 5840 5840 5839 5839 5838 5838 5838 5837 5837 5836
5819 5821 5823 5825 5828 5830 5832 5834 5835 5834 5830 5828 5831 5838 5840 5842 5843 5842 5844 5846 5846 5848 5846 5843 5843 5845 5847 5849 5851 5852 5853 5854 5855 5855 5856 5856 5856 5856 5855 5853 5851 5850 5851 5852 5851 5850 5848 5848 5850 5853 5854 5853 5852 5850 5849 5848 5848 5849 5850 5850 5848 5848 5848 5849 5849 5850 5850 5848 5847 5846 5846 5845 5845 5844 5844 5843 5842 5841 5840 5841 5841 5841 5841 5840 5840 5840 5840 5840 5839 5839 5838 5838 5838 5837 5837 5836 5836
5817 5818 5820 5823 5825 5828 5831 5830 5829 5828 5825 5825 5831 5839 5840 5840 5841 5841 5844 5845 5844 5846 5844 5842 5842 5844 5847 5848 5850 5851 5852 5853 5854 5854 5854 5855 5855 5855 5853 5851 5850 5850 5849 5847 5847 5845 5845 5848 5852 5855 5855 5854 5851 5849 5847 5846 5849 5851 5851 5850 5848 5848 5849 5849 5849 5849 5848 5846 5846 5846 5845 5844 5844 5843 5843 5843 5842 5841 5840 5840 5840 5840 5839 5839 5839 5838 5839 5839 5839 5838 5838 5838 5837 5837 5836 5836 5836
5814 5816 5818 5821 5822 5826 5827 5823 5823 5824 5823 5825 5832 5839 5838 5838 5840 5841 5843 5842 5843 5844 5842 5840 5840 5843 5846 5846 5849 5851 5852 5852 5852 5853 5853 5853 5854 5854 5852 5849 5848 5848 5846 5844 5845 5845 5846 5851 5855 5855 5855 5853 5852 5851 5849 5849 5852 5853 5851 5849 5848 5848 5848 5848 5848 5847 5846 5846 5846 5846 5845 5844 5843 5842 5842 5843 5842 5841 5840 5840 5839 5838 5837 5837 5837 5837 5837 5837 5837 5837 5837 5837 5837 5836 5836 5835 5835
5812 5814 5816 5818 5819 5821 5819 5816 5820 5823 5823 5826 5833 5839 5837 5836 5839 5840 5841 5841 5843 5843 5841 5840 5838 5841 5844 5844 5847 5850 5851 5851 5851 5851 5851 5852 5852 5852 5851 5849 5847 5846 5845 5844 5846 5848 5849 5852 5854 5853 5852 5851 5850 5850 5851 5851 5852 5852 5849 5847 5847 5847 5847 5847 5847 5847 5846 5845 5845 5845 5844 5843 5842 5842 5843 5842 5842 5841 5840 5839 5838 5837 5836 5836 5836 5836 5835 5835 5836 5836 5836 5836 5836 5835 5835 5834 5834
5810 5812 5814 5814 5815 5815 5813 5815 5819 5820 5823 5828 5833 5835 5832 5833 5837 5839 5839 5840 5841 5840 5840 5838 5836 5840 5842 5842 5845 5848 5849 5849 5849 5849 5849 5850 5850 5851 5850 5848 5846 5845 5844 5844 5847 5849 5849 5850 5850 5849 5849 5848 5848 5848 5850 5850 5850 5849 5847 5846 5846 5845 5845 5845 5846 5846 5845 5844 5843 5844 5843 5842 5841 5842 5842 5841 5840 5840 5840 5839 5838 5837 5836 5835 5834 5834 5834 5834 5834 5834 5834 5834 5834 5834 5833 5833 5833
5807 5810 5811 5810 5811 5813 5813 5814 5816 5819 5824 5826 5829 5829 5827 5832 5837 5838 5838 5838 5837 5837 5837 5835 5835 5839 5841 5841 5843 5846 5848 5848 5848 5847 5847 5848 5849 5849 5848 5847 5846 5846 5845 5846 5848 5847 5847 5848 5847 5847 5847 5847 5847 5848 5848 5848 5848 5847 5847 5847 5845 5844 5843 5843 5844 5845 5843 5843 5843 5843 5842 5841 5840 5841 5840 5840 5840 5840 5839 5838 5837 5836 5836 5834 5833 5832 5832 5832 5832 5832 5833 5833 5833 5832 5832 5832 5832
5805 5807 5808 5808 5809 5813 5812 5811 5813 5819 5823 5822 5824 5826 5828 5834 5836 5837 5836 5834 5834 5835 5834 5834 5835 5838 5839 5840 5842 5844 5845 5846 5846 5846 5846 5846 5847 5847 5847 5847 5847 5845 5845 5848 5848 5847 5847 5846 5845 5846 5846 5846 5846 5847 5846 5845 5846 5846 5846 5846 5845 5843 5842 5841 5842 5843 5842 5842 5843 5842 5841 5840 5839 5839 5838 5838 5838 5838 5838 5837 5836 5835 5835 5834 5833 5831 5831 5831 5830 5831 5831 5831 5831 5831 5831 5831 5831
5803 5804 5805 5805 5807 5810 5809 5808 5812 5818 5820 5820 5823 5825 5829 5831 5831 5833 5833 5831 5833 5833 5832 5833 5835 5835 5835 5837 5839 5841 5842 5843 5845 5846 5846 5845 5846 5846 5846 5847 5846 5844 5844 5846 5847 5846 5846 5844 5844 5845 5845 5845 5845 5846 5845 5844 5845 5845 5845 5845 5844 5842 5840 5840 5840 5841 5840 5840 5841 5841 5840 5839 5837 5837 5836 5836 5835 5836 5836 5835 5834 5834 5833 5833 5832 5831 5830 5829 5829 5830 5830 5830 5830 5830 5830 5830 5830
5801 5802 5803 5803 5804 5807 5807 5806 5811 5816 5817 5818 5820 5823 5826 5827 5828 5831 5830 5829 5832 5832 5831 5832 5833 5833 5834 5836 5838 5839 5841 5843 5845 5846 5845 5845 5845 5845 5846 5846 5844 5843 5843 5844 5844 5844 5843 5843 5843 5844 5844 5844 5844 5844 5843 5843 5844 5844 5844 5843 5842 5841 5839 5838 5838 5838 5837 5838 5838 5838 5837 5836 5835 5835 5835 5834 5834 5834 5834 5834 5833 5832 5831 5831 5830 5830 5829 5829 5828 5829 5829 5829 5829 5829 5828 5828 5828
5797 5798 5800 5801 5802 5804 5805 5805 5809 5813 5815 5815 5818 5821 5822 5825 5828 5829 5828 5829 5830 5832 5830 5829 5830 5832 5834 5836 5837 5839 5841 5843 5844 5845 5845 5844 5844 5844 5844 5844 5843 5843 5842 5842 5842 5842 5841 5842 5843 5843 5843 5843 5843 5843 5842 5842 5842 5842 5842 5841 5840 5839 5838 5837 5836 5835 5835 5836 5836 5836 5835 5834 5834 5833 5833 5833 5832 5832 5832 5832 5831 5831 5830 5829 5828 5828 5828 5828 5828 5828 5828 5828 5828 5827 5827 5827 5827
5794 5796 5798 5799 5800 5802 5803 5804 5808 5811 5812 5813 5816 5819 5819 5823 5827 5827 5826 5825 5828 5831 5828 5827 5829 5831 5833 5835 5835 5838 5840 5841 5842 5843 5844 5843 5843 5843 5843 5843 5843 5842 5841 5841 5841 5840 5840 5841 5842 5842 5842 5842 5841 5842 5841 5841 5841 5841 5841 5840 5839 5838 5837 5836 5836 5835 5834 5834 5834 5834 5833 5833 5833 5833 5832 5831 5830 5830 5829 5830 5830 5829 5828 5827 5827 5826 5826 5826 5826 5826 5826 5826 5826 5826 5826 5826 5826
5792 5795 5796 5797 5799 5800 5801 5803 5806 5808 5809 5812 5815 5816 5816 5821 5825 5824 5821 5821 5826 5829 5825 5825 5828 5829 5831 5831 5833 5836 5838 5839 5840 5841 5842 5842 5842 5841 5841 5842 5841 5840 5840 5841 5840 5839 5839 5840 5841 5841 5841 5841 5841 5840 5840 5840 5839 5839 5839 5839 5839 5838 5837 5837 5836 5834 5833 5832 5831 5830 5830 5831 5831 5830 5829 5828 5827 5827 5827 5827 5827 5828 5827 5826 5826 5825 5825 5825 5824 5825 5825 5825 5825 5824 5824 5824 5824
5790 5792 5794 5795 5797 5798 5799 5802 5804 5805 5807 5810 5813 5814 5813 5818 5822 5819 5818 5822 5827 5827 5824 5824 5826 5826 5827 5829 5831 5833 5835 5837 5838 5839 5840 5840 5840 5839 5840 5840 5840 5840 5839 5839 5838 5838 5839 5840 5840 5839 5839 5839 5839 5839 5839 5839 5838 5837 5837 5837 5837 5837 5836 5836 5835 5834 5832 5831 5829 5826 5826 5826 5826 5825 5824 5824 5824 5824 5824 5824 5825 5826 5826 5825 5825 5824 5823 5823 5823 5823 5824 5824 5824 5824 5823 5823 5823
5788 5790 5792 5793 5794 5795 5797 5800 5802 5803 5805 5807 5811 5812 5812 5817 5818 5816 5819 5822 5824 5825 5822 5822 5825 5827 5826 5827 5830 5831 5832 5834 5835 5837 5838 5838 5838 5838 5838 5838 5838 5838 5838 5837 5837 5837 5838 5838 5838 5838 5838 5837 5837 5837 5838 5837 5837 5836 5836 5835 5835 5834 5834 5833 5833 5832 5831 5830 5829 5828 5826 5823 5823 5822 5821 5822 5822 5821 5821 5822 5823 5824 5824 5824 5824 5822 5821 5821 5820 5820 5821 5822 5822 5823 5822 5822 5822
5786 5788 5790 5791 5793 5794 5795 5797 5800 5802 5802 5804 5809 5811 5813 5815 5813 5813 5817 5820 5822 5823 5820 5820 5824 5826 5826 5827 5828 5829 5830 5832 5833 5834 5835 5836 5836 5836 5836 5836 5836 5836 5836 5836 5836 5836 5837 5837 5837 5837 5836 5835 5835 5835 5836 5836 5835 5834 5833 5833 5832 5832 5831 5831 5831 5830 5830 5830 5828 5828 5827 5824 5823 5822 5820 5821 5822 5821 5820 5820 5821 5821 5822 5822 5821 5820 5819 5819 5818 5817 5818 5819 5820 5820 5819 5820 5820
5784 5786 5788 5790 5791 5793 5793 5795 5799 5801 5800 5803 5808 5811 5815 5814 5808 5809 5815 5818 5820 5820 5818 5821 5823 5823 5825 5826 5825 5826 5828 5829 5831 5832 5833 5833 5833 5833 5833 5832 5832 5833 5834 5835 5835 5835 5836 5836 5835 5835 5834 5834 5834 5833 5833 5833 5833 5832 5831 5830 5829 5829 5829 5829 5829 5829 5828 5828 5827 5826 5825 5823 5823 5822 5820 5820 5819 5819 5819 5818 5818 5818 5819 5819 5819 5818 5817 5817 5817 5816 5816 5817 5817 5817 5817 5817 5817
5782 5784 5786 5788 5789 5793 5793 5792 5796 5799 5798 5801 5806 5808 5812 5811 5805 5807 5814 5816 5818 5817 5817 5819 5820 5820 5821 5822 5822 5824 5825 5827 5829 5830 5831 5830 5830 5830 5829 5829 5830 5832 5833 5834 5834 5835 5835 5835 5834 5833 5833 5832 5832 5832 5832 5832 5832 5831 5830 5828 5828 5828 5828 5828 5828 5828 5827 5827 5826 5825 5824 5822 5822 5821 5819 5818 5816 5816 5816 5815 5815 5815 5816 5816 5817 5816 5815 5814 5814 5814 5814 5814 5814 5814 5814 5814 5814
5779 5782 5785 5786 5788 5793 5794 5790 5792 5797 5797 5800 5804 5804 5806 5807 5804 5807 5812 5814 5816 5815 5814 5816 5818 5817 5816 5818 5822 5823 5824 5826 5828 5829 5829 5827 5827 5828 5828 5829 5830 5831 5832 5833 5833 5834 5834 5834 5833 5833 5832 5831 5831 5831 5831 5831 5830 5830 5829 5827 5827 5826 5827 5827 5826 5825 5825 5826 5825 5823 5824 5825 5823 5821 5818 5817 5815 5815 5814 5814 5813 5812 5813 5814 5814 5814 5813 5812 5812 5811 5811 5811 5811 5811 5811 5812 5812
5778 5781 5783 5786 5788 5792 5794 5790 5788 5794 5797 5798 5802 5802 5802 5803 5803 5805 5809 5811 5813 5813 5812 5813 5814 5814 5814 5817 5820 5820 5822 5824 5825 5827 5827 5826 5826 5828 5830 5831 5831 5831 5832 5832 5832 5833 5833 5833 5833 5832 5831 5831 5830 5829 5829 5829 5829 5828 5827 5826 5825 5824 5824 5825 5824 5823 5823 5823 5822 5821 5821 5823 5821 5819 5817 5816 5815 5814 5814 5813 5812 5811 5811 5812 5812 5812 5812 5811 5810 5809 5809 5809 5808 5808 5808 5810 5810
5777 5779 5781 5784 5787 5790 5794 5791 5786 5790 5795 5796 5800 5801 5799 5800 5801 5803 5806 5807 5809 5810 5810 5809 5810 5812 5815 5816 5817 5819 5820 5821 5823 5825 5826 5827 5827 5828 5829 5830 5830 5831 5831 5831 5831 5832 5833 5833 5832 5831 5830 5830 5829 5828 5828 5828 5827 5827 5826 5825 5824 5823 5823 5823 5822 5822 5821 5819 5819 5818 5818 5818 5817 5817 5817 5816 5814 5813 5813 5812 5811 5811 5810 5810 5809 5809 5809 5809 5809 5807 5807 5807 5807 5807 5806 5806 5807
5774 5778 5780 5782 5786 5789 5793 5792 5786 5787 5793 5796 5797 5798 5796 5796 5799 5801 5802 5803 5805 5806 5806 5806 5808 5812 5814 5814 5815 5817 5818 5819 5821 5823 5824 5825 5825 5826 5827 5828 5828 5829 5829 5830 5830 5830 5831 5831 5831 5830 5829 5828 5827 5827 5826 5826 5826 5825 5825 5824 5823 5822 5822 5821 5820 5820 5819 5817 5817 5816 5815 5815 5816 5816 5815 5815 5813 5812 5811 5811 5810 5810 5809 5808 5807 5807 5806 5806 5806 5805 5804 5804 5804 5805 5804 5803 5804
5770 5775 5778 5780 5783 5788 5792 5793 5788 5785 5790 5795 5795 5793 5793 5793 5795 5797 5799 5800 5802 5803 5805 5807 5808 5809 5811 5812 5812 5814 5816 5817 5819 5820 5822 5822 5823 5824 5825 5825 5826 5826 5827 5828 5828 5828 5829 5828 5828 5828 5827 5826 5826 5825 5825 5825 5824 5824 5823 5822 5821 5821 5820 5820 5819 5818 5817 5816 5815 5814 5814 5814 5814 5814 5814 5813 5812 5811 5810 5809 5808 5808 5807 5806 5805 5804 5804 5804 5803 5802 5801 5801 5801 5802 5801 5799 5800
5767 5770 5774 5778 5781 5785 5790 5792 5790 5786 5787 5793 5794 5791 5790 5791 5792 5795 5797 5798 5800 5802 5804 5805 5806 5807 5808 5808 5809 5811 5813 5814 5816 5818 5819 5820 5820 5821 5823 5823 5823 5824 5825 5825 5826 5826 5826 5826 5826 5825 5824 5824 5824 5823 5823 5823 5822 5822 5821 5820 5820 5819 5818 5818 5817 5817 5816 5815 5814 5812 5812 5811 5811 5811 5812 5811 5810 5808 5808 5807 5806 5805 5804 5803 5802 5802 5801 5801 5800 5800 5799 5797 5797 5798 5797 5796 5796
5764 5767 5770 5776 5780 5783 5788 5789 5788 5786 5786 5791 5793 5788 5786 5787 5789 5792 5795 5796 5798 5800 5802 5803 5804 5805 5806 5806 5806 5808 5809 5810 5812 5814 5816 5817 5818 5819 5820 5821 5821 5822 5822 5823 5823 5823 5823 5823 5823 5823 5822 5822 5822 5821 5821 5821 5821 5820 5819 5819 5818 5817 5817 5816 5815 5815 5814 5813 5812 5810 5810 5809 5809 5809 5809 5808 5807 5806 5805 5805 5804 5802 5801 5801 5800 5799 5798 5798 5797 5796 5796 5795 5794 5794 5794 5793 5793
5761 5764 5768 5774 5779 5783 5786 5783 5782 5784 5785 5790 5790 5785 5783 5784 5786 5790 5792 5793 5796 5798 5799 5801 5802 5803 5804 5804 5804 5805 5807 5807 5808 5810 5812 5813 5815 5816 5817 5818 5819 5819 5820 5820 5821 5821 5821 5821 5821 5821 5820 5820 5820 5819 5819 5819 5819 5818 5818 5817 5816 5815 5815 5814 5814 5813 5812 5811 5810 5809 5808 5807 5807 5806 5805 5804 5804 5803 5802 5801 5801 5800 5798 5797 5796 5796 5795 5795 5793 5793 5792 5791 5790 5790 5790 5790 5791
5757 5762 5767 5771 5775 5781 5784 5780 5777 5780 5783 5786 5786 5783 5783 5782 5783 5788 5790 5791 5793 5795 5797 5798 5800 5801 5801 5802 5802 5803 5805 5805 5806 5808 5810 5810 5812 5813 5814 5815 5816 5816 5817 5817 5818 5818 5818 5818 5818 5819 5818 5818 5818 5817 5817 5817 5816 5816 5816 5815 5814 5814 5813 5812 5811 5811 5810 5809 5808 5808 5806 5805 5804 5803 5801 5800 5800 5799 5798 5797 5797 5796 5795 5794 5793 5792 5792 5791 5791 5790 5789 5788 5786 5785 5786 5787 5788
5755 5761 5765 5767 5771 5777 5781 5777 5775 5779 5781 5783 5783 5781 5782 5781 5781 5783 5786 5788 5790 5792 5794 5796 5797 5798 5798 5799 5799 5801 5802 5803 5805 5806 5808 5808 5809 5810 5811 5812 5813 5814 5814 5814 5815 5816 5816 5816 5816 5816 5816 5816 5815 5815 5815 5815 5814 5814 5813 5813 5812 5811 5811 5810 5809 5808 5807 5807 5806 5805 5803 5802 5801 5799 5798 5797 5796 5795 5794 5793 5792 5792 5791 5790 5790 5789 5789 5788 5788 5787 5786 5784 5781 5780 5781 5783 5784
5754 5759 5761 5765 5769 5773 5778 5777 5774 5776 5777 5778 5780 5779 5780 5780 5777 5777 5781 5785 5787 5789 5791 5793 5794 5795 5795 5795 5796 5797 5799 5801 5803 5804 5806 5806 5807 5808 5809 5810 5811 5811 5811 5812 5813 5813 5813 5813 5813 5813 5813 5813 5813 5813 5813 5812 5812 5812 5811 5811 5810 5809 5808 5807 5806 5805 5804 5803 5802 5801 5799 5798 5798 5796 5795 5793 5792 5792 5791 5790 5788 5787 5787 5786 5786 5786 5786 5785 5784 5784 5782 5780 5779 5777 5778 5779 5780
5753 5757 5758 5763 5767 5768 5772 5775 5774 5773 5772 5773 5776 5776 5777 5778 5774 5772 5777 5781 5784 5787 5789 5790 5791 5792 5792 5792 5793 5794 5796 5798 5800 5802 5803 5804 5805 5806 5807 5808 5808 5809 5809 5809 5810 5810 5811 5810 5810 5811 5811 5811 5810 5810 5810 5810 5810 5809 5809 5809 5808 5807 5806 5805 5804 5802 5801 5800 5799 5797 5795 5794 5794 5793 5791 5789 5789 5788 5788 5787 5785 5784 5782 5782 5782 5782 5782 5782 5781 5780 5779 5778 5777 5775 5775 5776 5777
5752 5755 5757 5760 5762 5763 5767 5770 5772 5770 5767 5769 5773 5774 5774 5775 5772 5770 5773 5776 5780 5784 5786 5787 5788 5789 5790 5790 5790 5791 5793 5795 5798 5799 5801 5802 5803 5803 5804 5805 5806 5806 5807 5807 5807 5808 5808 5808 5808 5808 5808 5808 5808 5808 5808 5807 5807 5807 5806 5806 5805 5804 5803 5802 5801 5799 5798 5797 5796 5795 5793 5791 5790 5790 5788 5787 5785 5784 5785 5784 5783 5780 5778 5778 5779 5779 5779 5779 5778 5777 5776 5775 5774 5773 5772 5773 5774
5748 5751 5754 5756 5757 5760 5763 5765 5766 5764 5762 5765 5771 5772 5772 5772 5770 5769 5770 5771 5775 5780 5783 5784 5785 5787 5787 5787 5787 5788 5790 5793 5795 5797 5798 5799 5800 5801 5802 5803 5803 5804 5804 5804 5805 5805 5805 5805 5805 5805 5805 5805 5805 5805 5805 5804 5804 5804 5803 5803 5802 5802 5800 5799 5798 5797 5795 5794 5792 5791 5790 5789 5788 5786 5786 5784 5782 5781 5781 5781 5779 5777 5775 5774 5775 5775 5775 5775 5775 5774 5773 5772 5771 5770 5770 5770 5772
5743 5746 5749 5752 5754 5755 5757 5759 5760 5758 5759 5764 5769 5770 5769 5768 5768 5767 5766 5768 5771 5777 5780 5781 5782 5784 5785 5785 5785 5786 5788 5790 5792 5794 5795 5796 5798 5799 5800 5801 5801 5802 5802 5802 5802 5803 5803 5803 5803 5803 5803 5803 5803 5802 5802 5801 5801 5801 5801 5800 5799 5799 5798 5796 5795 5794 5793 5791 5790 5789 5787 5786 5785 5784 5782 5781 5780 5778 5777 5777 5776 5774 5773 5772 5771 5772 5771 5771 5771 5771 5770 5769 5768 5767 5767 5768 5770
5738 5741 5743 5747 5749 5750 5751 5753 5756 5756 5759 5764 5768 5769 5766 5764 5764 5763 5764 5766 5770 5774 5777 5777 5779 5780 5781 5782 5783 5784 5786 5788 5790 5791 5793 5794 5796 5797 5798 5798 5799 5799 5799 5800 5800 5800 5800 5800 5800 5800 5800 5800 5800 5799 5799 5798 5798 5798 5797 5797 5796 5796 5795 5793 5793 5791 5790 5789 5787 5786 5785 5784 5782 5781 5779 5778 5776 5775 5773 5772 5772 5771 5770 5770 5769 5769 5768 5767 5767 5766 5766 5766 5765 5764 5763 5765 5767
5735 5739 5742 5745 5745 5746 5748 5751 5754 5756 5758 5763 5766 5766 5762 5760 5760 5760 5762 5765 5768 5772 5774 5774 5776 5777 5778 5779 5781 5782 5784 5786 5787 5789 5790 5792 5794 5795 5795 5796 5796 5797 5797 5797 5798 5798 5798 5797 5797 5797 5797 5796 5796 5796 5796 5796 5795 5795 5794 5794 5793 5793 5792 5791 5790 5789 5787 5786 5784 5783 5783 5781 5779 5778 5776 5774 5773 5772 5770 5769 5768 5767 5767 5767 5766 5766 5765 5765 5763 5762 5762 5762 5762 5761 5761 5762 5764
5733 5738 5740 5741 5741 5744 5748 5750 5752 5755 5757 5760 5761 5759 5757 5757 5757 5757 5760 5762 5765 5768 5771 5772 5773 5774 5776 5777 5778 5780 5781 5783 5785 5787 5788 5790 5791 5792 5793 5794 5794 5794 5795 5795 5795 5795 5795 5795 5794 5794 5794 5793 5794 5794 5793 5793 5792 5792 5791 5791 5790 5790 5789 5788 5787 5786 5784 5783 5782 5781 5780 5778 5776 5775 5773 5772 5769 5768 5767 5766 5765 5763 5763 5763 5763 5763 5762 5761 5760 5759 5759 5760 5760 5759 5759 5760 5761
5730 5734 5736 5738 5740 5745 5748 5749 5750 5753 5754 5754 5755 5754 5754 5754 5754 5754 5756 5759 5762 5765 5768 5770 5770 5771 5773 5774 5776 5777 5779 5781 5783 5784 5786 5787 5789 5790 5790 5791 5792 5792 5792 5792 5793 5793 5792 5792 5791 5791 5791 5790 5791 5791 5790 5790 5789 5789 5788 5788 5787 5787 5786 5785 5784 5782 5781 5780 5779 5778 5777 5775 5773 5771 5770 5769 5767 5765 5763 5763 5762 5760 5759 5759 5759 5759 5758 5757 5757 5756 5756 5757 5757 5757 5757 5758 5758
5726 5729 5733 5738 5740 5743 5745 5746 5747 5748 5750 5750 5750 5752 5752 5752 5752 5752 5754 5757 5760 5762 5765 5767 5768 5769 5770 5771 5773 5775 5776 5778 5780 5782 5783 5785 5786 5787 5788 5789 5789 5790 5790 5790 5790 5790 5790 5789 5789 5788 5788 5788 5788 5787 5787 5787 5786 5786 5785 5785 5784 5783 5783 5782 5780 5779 5778 5778 5776 5775 5773 5772 5770 5769 5767 5766 5764 5762 5760 5759 5758 5757 5756 5755 5755 5755 5754 5753 5753 5753 5753 5754 5754 5754 5754 5755 5755
5723 5727 5730 5733 5735 5737 5739 5741 5742 5743 5746 5747 5747 5748 5749 5749 5749 5750 5753 5756 5758 5760 5762 5763 5764 5765 5767 5768 5770 5771 5773 5775 5777 5779 5781 5782 5784 5785 5785 5786 5787 5787 5787 5787 5787 5787 5787 5786 5786 5785 5785 5785 5784 5784 5784 5784 5783 5782 5782 5781 5781 5780 5779 5778 5777 5776 5775 5774 5773 5772 5771 5769 5767 5766 5764 5763 5761 5759 5757 5755 5754 5753 5753 5752 5751 5750 5750 5750 5749 5749 5750 5750 5750 5750 5751 5751 5752
5719 5725 5727 5727 5730 5733 5735 5737 5739 5741 5743 5744 5743 5744 5744 5745 5746 5748 5751 5753 5755 5757 5759 5760 5762 5762 5764 5766 5767 5769 5771 5773 5775 5776 5778 5780 5781 5781 5782 5783 5784 5784 5784 5784 5784 5784 5783 5783 5782 5782 5782 5782 5781 5781 5781 5780 5780 5779 5779 5778 5778 5777 5776 5775 5774 5773 5772 5771 5770 5769 5768 5766 5764 5763 5762 5760 5758 5757 5754 5752 5751 5749 5749 5749 5747 5747 5747 5747 5747 5746 5745 5745 5745 5746 5748 5748 5748
5714 5719 5722 5723 5725 5730 5734 5735 5737 5738 5740 5741 5741 5740 5740 5742 5744 5746 5748 5750 5752 5754 5756 5758 5759 5760 5761 5763 5765 5767 5768 5770 5772 5774 5775 5776 5777 5778 5780 5780 5780 5780 5781 5781 5781 5780 5780 5780 5779 5779 5778 5778 5778 5778 5777 5777 5776 5776 5775 5775 5774 5773 5773 5772 5771 5770 5769 5768 5767 5766 5765 5763 5762 5760 5759 5757 5755 5754 5752 5750 5748 5746 5746 5745 5744 5743 5743 5742 5743 5743 5743 5742 5742 5742 5743 5744 5744
5712 5715 5718 5721 5723 5727 5730 5732 5734 5736 5738 5739 5739 5738 5737 5740 5742 5743 5745 5747 5749 5751 5753 5754 5756 5757 5759 5761 5762 5764 5766 5768 5770 5771 5772 5773 5774 5776 5777 5777 5777 5777 5777 5777 5777 5777 5777 5776 5776 5775 5775 5775 5774 5774 5773 5773 5773 5772 5772 5771 5771 5770 5769 5768 5767 5766 5765 5765 5764 5763 5761 5760 5759 5758 5756 5754 5753 5751 5749 5747 5745 5743 5742 5742 5740 5739 5738 5737 5738 5739 5740 5739 5739 5739 5739 5740 5740